Regional Weather Roundup
Issued by NWS Goodland, KS

Home | Current Version | Previous Version | Text Only | Print | Product List | Glossary Off
Versions: 1 2 3 4 5 6 7 8 9 10 11 12 13 14 15 16 17 18 19 20 21 22 23 24 25 26 27 28 29 30 31 32 33 34 35 36 37 38 39 40 41 42 43 44 45 46 47 48 49 50

000
ASUS43 KGLD 200108
RWRGLD

GOODLAND FORECAST AREA HOURLY WEATHER ROUNDUP
NATIONAL WEATHER SERVICE GOODLAND KS
700 PM MDT TUE AUG 19 2014

...OFFICIAL OBSERVATIONS...

CITY           SKY/WX    TMP DP  RH WIND       PRES   REMARKS
GOODLAND KS    PTCLDY    84  56  38 SE17G25   29.77S
HILL CITY KS   CLEAR     88  61  40 S10       29.74S
IMPERIAL NEB   PTCLDY    86  62  44 E9        29.75F
MCCOOK NEB     CLEAR     88  63  43 E14       29.74S
AKRON CO       LGT RAIN  65  59  81 N7        29.89R
BURLINGTON CO  MOCLDY    85  47  26 SW29G41   29.82R HAZE
LIMON CO       LGT RAIN  73  48  41 N24G31    29.90S
$$

...UNOFFICIAL OBSERVATIONS...

CITY           SKY/WX    TMP DP  RH WIND       PRES   REMARKS
COLBY KS       CLEAR     84  59  42 S17G23    29.78S
LENORA KS        N/A     86  32  14 CALM        N/A
NORTON KS      CLEAR     88  52  29 SE12      29.73R
SHARON SPRINGS   N/A     89  53  29 S15G24      N/A
KIT CARSON CO    N/A     84  48  28 MISG        N/A
YUMA CO          N/A     71  60  67 W28G44      N/A
$$


USA.gov is the U.S. government's official web portal to all federal, state and local government web resources and services.